FW2691 Weather Reports


time (UTC)temp
F
wind
direction
speed
knots
gust
knots
rain 1hr
in
rain 24hr
in
rain mn
in
humidity
%
barometer
mb
20260507100231 53 206 4.3 9.6 0.00 0.18 0.02 84 1013.1
20260507095719 52 260 5.2 13.0 0.00 0.18 0.02 84 1013.0
20260507094939 52 223 7.0 13.0 0.00 0.18 0.02 84 1012.9
20260507094440 52 240 5.2 10.4 0.00 0.18 0.02 85 1012.9
20260507093438 52 226 6.1 10.4 0.00 0.18 0.02 87 1012.8
20260507092934 52 241 4.3 8.7 0.00 0.18 0.02 89 1012.8
20260507092703 51 266 4.3 10.4 0.00 0.18 0.02 89 1012.7
20260507091935 51 289 7.0 13.9 0.00 0.18 0.02 88 1012.7
20260507091433 52 235 5.2 13.9 0.00 0.18 0.02 88 1012.6
20260507090930 52 220 5.2 10.4 0.00 0.18 0.02 87 1012.6
20260507090733 52 280 5.2 9.6 0.00 0.18 0.02 88 1012.5
20260507090227 52 253 5.2 10.4 0.00 0.18 0.02 88 1012.5
20260507085427 52 239 7.0 11.3 0.00 0.18 0.02 88 1012.4
20260507084925 52 216 4.3 14.8 0.00 0.18 0.02 88 1012.4
20260507084426 52 223 7.0 14.8 0.00 0.18 0.02 88 1012.4
20260507083928 52 206 5.2 11.3 0.00 0.18 0.02 89 1012.2
20260507083421 52 248 5.2 11.3 0.00 0.18 0.02 88 1012.3
20260507082919 51 216 3.5 7.8 0.00 0.18 0.02 89 1012.1
20260507082418 51 225 2.6 9.6 0.00 0.18 0.02 90 1012.1
20260507081914 51 264 6.1 11.3 0.00 0.18 0.02 90 1012.1
20260507081415 51 239 7.0 11.3 0.00 0.18 0.02 90 1012.1
20260507080911 50 206 4.3 8.7 0.00 0.18 0.02 91 1012.1
20260507080412 50 216 5.2 9.6 0.00 0.18 0.02 91 1012.1
20260507075913 50 247 4.3 9.6 0.00 0.18 0.02 91 1012.0
20260507075409 50 230 5.2 8.7 0.00 0.18 0.02 92 1011.9
20260507074906 50 276 4.3 7.0 0.00 0.18 0.02 92 1011.9
20260507074640 50 211 3.5 7.0 0.00 0.18 0.02 92 1011.9
20260507073908 50 245 3.5 9.6 0.00 0.18 0.02 92 1011.9
20260507073402 50 263 6.1 9.6 0.00 0.18 0.02 92 1011.8
20260507073129 50 206 3.5 6.1 0.00 0.18 0.02 92 1011.8
20260507072626 50 233 3.5 7.8 0.00 0.18 0.02 92 1011.8
20260507071900 49 178 1.7 8.7 0.00 0.18 0.02 92 1011.7
20260507071401 49 182 3.5 8.7 0.00 0.18 0.02 92 1011.7
20260507070857 49 216 4.3 8.7 0.00 0.18 0.02 92 1011.6
20260507070355 49 216 3.5 8.7 0.00 0.18 0.02 92 1011.7
20260507065855 49 199 3.5 8.7 0.00 0.18 0.02 92 1011.6
20260507065350 49 216 3.5 7.0 0.00 0.18 0.02 92 1011.6
20260507064850 49 172 1.7 8.7 0.00 0.18 0.02 92 1011.5
20260507064352 49 216 3.5 9.6 0.00 0.18 0.02 91 1011.6
20260507063847 49 233 3.5 9.6 0.00 0.18 0.02 91 1011.5
20260507063344 49 211 3.5 8.7 0.00 0.18 0.02 91 1011.5
20260507062846 49 237 4.3 8.7 0.00 0.18 0.02 91 1011.4
20260507062344 49 206 3.5 8.7 0.00 0.18 0.02 90 1011.4
20260507061843 49 199 4.3 9.6 0.00 0.18 0.02 90 1011.3
20260507061337 49 203 5.2 9.6 0.00 0.18 0.02 90 1011.2
20260507060840 49 228 4.3 10.4 0.00 0.18 0.02 91 1011.2
20260507060338 49 130 7.0 10.4 0.00 0.18 0.02 91 1011.1
20260507055837 49 206 5.2 11.3 0.00 0.18 0.02 91 1011.1
20260507055616 49 245 5.2 11.3 0.00 0.18 0.02 91 1010.9
20260507054833 49 259 3.5 8.7 0.00 0.18 0.02 92 1010.8
20260507054334 49 155 3.5 8.7 0.00 0.18 0.02 92 1010.8
20260507053831 48 197 2.6 8.7 0.00 0.18 0.02 92 1010.7
20260507053331 48 229 2.6 8.7 0.00 0.18 0.02 92 1010.7
20260507052827 48 266 3.5 8.7 0.00 0.18 0.02 92 1010.6
20260507052323 48 239 5.2 8.7 0.01 0.18 0.02 92 1010.6
20260507051824 48 231 2.6 9.6 0.01 0.18 0.02 92 1010.6
20260507051323 48 226 5.2 9.6 0.01 0.18 0.02 91 1010.5
20260507050822 48 197 4.3 7.8 0.01 0.18 0.02 92 1010.6
20260507050610 48 264 2.6 9.6 0.01 0.18 0.02 92 1010.5
20260507045820 48 233 4.3 9.6 0.01 0.18 0.02 91 1010.5
20260507045317 48 244 4.3 7.8 0.01 0.18 0.02 92 1010.4
20260507044817 48 248 2.6 7.0 0.01 0.18 0.02 92 1010.4
20260507044548 48 272 3.5 8.7 0.01 0.18 0.02 92 1010.4
20260507044043 48 226 3.5 8.7 0.01 0.18 0.02 92 1010.4
20260507043311 48 196 2.6 7.0 0.01 0.18 0.02 91 1010.4
20260507042810 48 242 2.6 7.8 0.01 0.18 0.02 91 1010.3
20260507042307 48 216 4.3 7.8 0.00 0.17 0.01 91 1010.2
20260507041809 48 216 3.5 9.6 0.00 0.17 0.01 91 1010.1
20260507041305 48 270 4.3 9.6 0.00 0.17 0.01 91 1010.0
20260507040805 48 241 4.3 8.7 0.00 0.17 0.01 92 1010.0
20260507040316 48 249 4.3 8.7 0.00 0.17 0.01 92 1009.9
20260507035300 49 237 1.7 7.0 0.00 0.17 0.01 92 1009.9
20260507034759 49 227 1.7 7.8 0.00 0.17 0.01 91 1009.9
20260507034529 49 239 4.3 7.8 0.00 0.18 0.01 91 1009.8
20260507033755 49 216 2.6 6.1 0.00 0.18 0.01 91 1009.8
20260507032750 49 216 2.6 7.8 0.00 0.18 0.01 91 1009.7
20260507032252 49 247 3.5 9.6 0.00 0.18 0.01 91 1009.7
20260507031752 49 240 4.3 9.6 0.00 0.18 0.01 91 1009.7
20260507031250 49 235 3.5 7.8 0.00 0.18 0.01 91 1009.7
20260507030748 49 270 0.9 4.3 0.00 0.18 0.01 92 1009.7
20260507030243 49 241 2.6 6.1 0.00 0.18 0.01 92 1009.6
20260507025748 50 216 2.6 6.1 0.00 0.18 0.01 92 1009.6
20260507024743 50 266 4.3 7.0 0.00 0.18 0.01 92 1009.6
20260507024242 50 248 1.7 6.1 0.00 0.18 0.01 92 1009.6
20260507023740 50 264 2.6 6.1 0.00 0.18 0.01 92 1009.5
20260507022737 50 235 1.7 5.2 0.00 0.18 0.01 92 1009.6
20260507022459 50 216 1.7 5.2 0.00 0.18 0.01 92 1009.5
20260507021734 50 242 1.7 5.2 0.00 0.18 0.01 92 1009.5
20260507021234 50 236 2.6 7.8 0.00 0.18 0.01 92 1009.5
20260507020730 50 216 1.7 7.8 0.00 0.18 0.01 92 1009.4
20260507020233 50 206 1.7 7.8 0.00 0.18 0.01 92 1009.4
20260507015729 50 216 1.7 7.8 0.00 0.18 0.01 92 1009.4
20260507015228 50 183 0.9 7.8 0.00 0.18 0.01 92 1009.4
20260507014726 50 239 1.7 8.7 0.00 0.18 0.01 92 1009.4
20260507014453 50 237 2.6 8.7 0.00 0.18 0.01 92 1009.4
20260507013724 50 216 1.7 5.2 0.00 0.18 0.01 92 1009.4
20260507013217 51 216 2.6 6.1 0.00 0.18 0.01 92 1009.3
20260507012219 51 211 2.6 7.8 0.00 0.18 0.01 92 1009.3
20260507011719 51 216 2.6 7.0 0.00 0.18 0.01 92 1009.2
20260507011222 51 254 3.5 8.7 0.00 0.18 0.01 92 1009.2
20260507010958 51 245 5.2 8.7 0.00 0.18 0.01 92 1009.1
20260507010437 51 199 1.7 8.7 0.00 0.18 0.01 92 1009.2
20260507005932 51 192 2.6 7.8 0.00 0.18 0.01 93 1009.2
20260507005212 51 224 3.5 7.8 0.00 0.18 0.01 92 1009.3
20260507004941 51 236 2.6 5.2 0.00 0.18 0.01 92 1009.2
20260507004209 51 211 2.6 7.0 0.00 0.18 0.01 92 1009.2
20260507003710 51 170 1.7 7.8 0.00 0.18 0.01 92 1009.2
20260507003211 51 211 2.6 7.8 0.01 0.18 0.01 92 1009.1
20260507002705 51 216 0.9 4.3 0.01 0.18 0.01 92 1009.1
20260507002428 51 216 1.7 4.3 0.01 0.18 0.01 92 1009.1
20260507001702 51 222 1.7 7.0 0.01 0.18 0.01 92 1009.1
20260507001204 51 255 3.5 7.0 0.01 0.18 0.01 92 1009.2
20260507000701 51 273 3.5 6.1 0.01 0.18 0.01 92 1009.2
20260507000200 51 211 1.7 6.1 0.01 0.18 0.01 92 1009.2
20260506235700 51 216 0.9 6.1 0.01 0.18 0.01 92 1009.2
20260506235157 51 216 2.6 7.0 0.01 0.18 0.01 92 1009.2
20260506234656 51 222 1.7 7.0 0.01 0.18 0.01 92 1009.2
20260506234152 51 222 3.5 8.7 0.01 0.18 0.01 92 1009.2
20260506233922 51 216 4.3 8.7 0.01 0.18 0.01 92 1009.1
20260506232916 51 237 2.6 7.0 0.00 0.17 0.00 92 1009.1
20260506231637 52 243 2.6 7.0 0.00 0.17 0.00 92 1009.1
20260506231139 52 224 2.6 7.0 0.00 0.17 0.00 92 1009.0
20260506230635 52 206 1.7 4.3 0.00 0.17 0.00 92 1009.0
20260506230136 52 206 1.7 4.3 0.00 0.17 0.00 92 1008.9
20260506225635 52 199 2.6 5.2 0.00 0.17 0.00 92 1008.9
20260506225403 52 216 0.9 6.1 0.00 0.17 0.00 92 1008.9
20260506224628 52 242 2.6 6.1 0.00 0.17 0.00 92 1008.8
20260506224134 52 251 0.9 4.3 0.00 0.17 0.00 92 1008.9
20260506223129 52 224 0.9 5.2 0.01 0.17 0.00 92 1008.8
20260506222628 52 250 0.0 6.1 0.01 0.17 0.00 92 1008.7
20260506222126 52 279 3.5 6.1 0.01 0.17 0.00 92 1008.6
20260506221623 52 261 1.7 4.3 0.01 0.17 0.00 92 1008.6
20260506221123 52 279 1.7 4.3 0.02 0.17 0.00 92 1008.7
20260506220627 52 216 1.7 2.6 0.03 0.17 0.00 92 1008.6
20260506215619 52 244 0.9 3.5 0.06 0.17 0.17 92 1008.6
20260506215346 52 243 1.7 3.5 0.09 0.17 0.17 92 1008.6
20260506214617 52 248 1.7 4.3 0.11 0.17 0.17 92 1008.6
20260506214113 52 243 2.6 4.3 0.12 0.17 0.17 92 1008.7
20260506213613 52 252 0.9 4.3 0.12 0.17 0.17 92 1008.8
20260506213111 52 233 3.5 5.2 0.12 0.17 0.17 92 1008.7
20260506212844 52 257 3.5 5.2 0.13 0.17 0.17 92 1008.8
20260506212111 53 216 2.6 6.1 0.13 0.17 0.17 92 1008.8
20260506211606 53 195 3.5 6.1 0.13 0.17 0.17 92 1008.8
20260506211109 53 256 1.7 6.1 0.13 0.15 0.15 91 1008.8
20260506210604 53 237 2.6 7.0 0.12 0.14 0.14 91 1008.8
20260506210109 53 238 2.6 8.7 0.10 0.13 0.13 91 1008.8
20260506205603 53 216 3.5 8.7 0.08 0.10 0.11 91 1008.8
20260506205103 53 216 3.5 9.6 0.06 0.09 0.09 91 1008.8
20260506204601 53 244 3.5 9.6 0.04 0.06 0.07 90 1008.8
20260506204100 53 203 4.3 8.7 0.03 0.06 0.06 90 1008.7
20260506203558 53 168 1.7 7.0 0.02 0.05 0.05 90 1008.6
20260506203057 53 224 0.9 3.5 0.02 0.05 0.05 90 1008.6
20260506202554 53 242 0.0 1.7 0.02 0.04 0.04 90 1008.6
20260506202056 53 242 0.9 3.5 0.02 0.04 0.04 89 1008.5
20260506200546 53 254 0.9 4.3 0.00 0.02 0.02 89 1008.6
20260506200053 53 182 1.7 4.3 0.00 0.02 0.02 89 1008.5
20260506195803 53 211 0.9 6.1 0.00 0.02 0.02 89 1008.3
20260506195037 53 255 2.6 6.1 0.00 0.02 0.02 89 1008.3
20260506194540 53 211 2.6 4.3 0.00 0.02 0.02 89 1008.2
20260506194040 53 211 0.9 3.5 0.00 0.02 0.02 89 1008.1
20260506193539 53 285 0.0 1.7 0.00 0.02 0.02 89 1008.0
20260506193037 53 285 0.0 2.6 0.00 0.02 0.02 89 1008.0
20260506192538 53 285 0.0 3.5 0.00 0.02 0.02 90 1007.9
20260506192039 53 285 0.9 3.5 0.00 0.02 0.02 90 1007.8
20260506191032 53 318 0.0 1.7 0.00 0.02 0.02 90 1007.8
20260506190535 53 318 0.0 3.5 0.00 0.02 0.02 89 1007.7
20260506190029 53 318 0.0 3.5 0.00 0.02 0.02 89 1007.7
20260506185530 53 295 0.0 1.7 0.00 0.02 0.02 88 1007.7
20260506185027 54 228 0.0 1.7 0.01 0.02 0.02 88 1007.7
20260506184529 54 228 0.0 4.3 0.01 0.02 0.02 89 1007.5
20260506183751 54 302 0.9 2.6 0.01 0.02 0.02 89 1007.2
20260506182525 54 314 1.7 1.7 0.02 0.03 0.02 90 1007.2
20260506182014 54 318 0.9 3.5 0.02 0.03 0.02 90 1007.1
20260506181516 55 325 1.7 3.5 0.02 0.04 0.02 89 1006.9
20260506181239 55 318 0.0 2.6 0.02 0.06 0.02 89 1006.9
20260506180510 55 318 0.9 2.6 0.02 0.06 0.02 89 1007.1
20260506180013 55 318 0.0 2.6 0.02 0.08 0.02 89 1007.1
20260506175738 56 318 0.9 2.6 0.02 0.12 0.02 89 1007.2
20260506175008 56 332 0.0 1.7 0.01 0.15 0.02 88 1007.1
20260506174507 56 330 0.9 1.7 0.01 0.23 0.02 87 1007.1
20260506174240 57 268 0.9 1.7 0.01 0.30 0.02 86 1007.1
20260506173503 57 262 0.0 1.7 0.01 0.35 0.02 83 1007.2
20260506173003 57 260 0.0 2.6 0.01 0.35 0.02 82 1007.2
20260506172504 57 260 0.9 3.5 0.00 0.35 0.01 81 1007.2
20260506172004 58 259 1.7 4.3 0.00 0.35 0.01 81 1007.2
20260506171458 58 287 1.7 7.0 0.00 0.35 0.01 80 1007.1
20260506171000 58 292 2.6 7.0 0.00 0.35 0.01 79 1007.0
20260506170456 59 291 2.6 6.1 0.00 0.35 0.01 78 1006.9
20260506165728 59 316 3.5 6.1 0.00 0.35 0.01 75 1006.8
20260506164951 60 305 1.7 6.1 0.00 0.35 0.01 74 1006.7
20260506164447 60 316 2.6 6.1 0.00 0.35 0.01 72 1006.7
20260506163952 61 294 1.7 4.3 0.00 0.35 0.01 72 1006.8
20260506163450 61 304 1.7 3.5 0.00 0.35 0.01 72 1006.7
20260506162948 61 310 0.9 3.5 0.00 0.35 0.01 71 1006.7
20260506162446 61 320 0.0 3.5 0.00 0.35 0.01 70 1006.8
20260506161946 61 317 1.7 5.2 0.00 0.35 0.01 69 1006.8
20260506161442 61 297 2.6 5.2 0.00 0.35 0.01 68 1006.8
20260506160941 62 324 0.9 3.5 0.00 0.35 0.01 68 1006.8
20260506160442 62 326 0.9 3.5 0.00 0.35 0.01 68 1006.7
20260506155933 62 349 0.0 1.7 0.00 0.35 0.01 68 1006.8
20260506155434 62 347 0.0 1.7 0.00 0.35 0.01 69 1006.8
20260506154932 62 347 0.0 2.6 0.00 0.35 0.01 69 1006.9
20260506154209 62 347 0.0 3.5 0.00 0.35 0.01 68 1006.9
20260506153431 62 326 1.7 3.5 0.00 0.35 0.01 68 1006.9
20260506153152 63 32 0.9 3.5 0.00 0.35 0.01 68 1006.8
20260506152656 63 325 1.7 3.5 0.00 0.35 0.01 67 1006.9
20260506151925 63 322 0.9 2.6 0.00 0.35 0.01 66 1006.9
20260506151425 63 314 0.0 2.6 0.00 0.35 0.01 66 1006.9
20260506150922 63 287 1.7 2.6 0.00 0.35 0.01 64 1006.9
20260506150421 63 211 0.0 1.7 0.00 0.35 0.01 63 1007.0
20260506150216 63 202 0.0 2.6 0.00 0.35 0.01 62 1006.9
20260506145419 63 228 0.9 3.5 0.00 0.35 0.01 64 1007.0
20260506144919 63 270 0.9 3.5 0.00 0.35 0.01 66 1006.9
20260506143915 64 327 0.0 5.2 0.00 0.35 0.01 66 1007.0
20260506143414 64 270 2.6 3.5 0.00 0.35 0.01 62 1007.0
20260506142913 64 223 1.7 3.5 0.00 0.35 0.01 62 1007.0
20260506142412 65 220 0.9 1.7 0.00 0.35 0.01 63 1006.9
20260506141911 64 249 0.0 4.3 0.00 0.35 0.01 64 1006.9
20260506141409 65 251 1.7 4.3 0.00 0.35 0.01 61 1007.0
20260506140910 64 237 2.6 4.3 0.00 0.35 0.01 61 1007.1
20260506140404 64 293 0.9 5.2 0.00 0.35 0.01 63 1007.1
20260506140205 63 216 1.7 5.2 0.00 0.35 0.01 62 1007.2
20260506135402 63 124 2.6 5.2 0.00 0.35 0.01 62 1007.3
20260506134858 63 160 0.9 4.3 0.00 0.35 0.01 62 1007.3
20260506134357 63 206 2.6 4.3 0.00 0.35 0.01 62 1007.2
20260506133857 63 216 0.0 4.3 0.00 0.35 0.01 63 1007.3
20260506133355 63 262 2.6 4.3 0.00 0.35 0.01 62 1007.4
20260506132852 63 197 2.6 7.0 0.00 0.35 0.01 62 1007.5
20260506132352 63 189 2.6 7.0 0.00 0.35 0.01 63 1007.6
20260506131850 63 142 2.6 5.2 0.00 0.35 0.01 63 1007.6
20260506131347 63 236 1.7 7.0 0.00 0.35 0.01 62 1007.6
20260506130849 63 266 1.7 7.0 0.00 0.35 0.01 62 1007.6
20260506130347 63 206 1.7 8.7 0.00 0.35 0.01 61 1007.8
20260506125849 63 220 5.2 8.7 0.00 0.35 0.01 61 1007.8
20260506124843 63 189 2.6 7.8 0.00 0.35 0.01 62 1007.7
20260506124339 63 253 0.9 4.3 0.00 0.35 0.01 62 1007.7
20260506123833 63 228 1.7 6.1 0.00 0.35 0.01 63 1007.6
20260506123334 63 127 2.6 8.7 0.00 0.35 0.01 61 1007.7
20260506122836 63 206 3.5 8.7 0.00 0.35 0.01 63 1007.6
20260506122343 64 192 2.6 7.8 0.00 0.35 0.01 63 1007.7
20260506121833 64 260 3.5 7.8 0.00 0.35 0.01 62 1007.8
20260506121332 64 206 1.7 7.8 0.00 0.35 0.01 66 1007.9
20260506120830 63 203 4.3 7.8 0.00 0.35 0.01 66 1007.9
20260506120331 62 170 0.9 5.2 0.00 0.35 0.01 70 1007.9
20260506120048 63 206 1.7 7.8 0.00 0.35 0.01 69 1007.9
20260506115327 63 216 3.5 8.7 0.00 0.35 0.01 68 1008.0
20260506115045 64 222 3.5 7.8 0.00 0.35 0.01 67 1008.0
20260506114326 63 216 3.5 9.6 0.00 0.35 0.01 70 1008.1
20260506113823 62 197 5.2 9.6 0.00 0.35 0.01 71 1008.0
20260506113320 62 137 3.5 7.0 0.00 0.35 0.01 71 1008.0
20260506112820 62 254 1.7 7.0 0.00 0.35 0.01 72 1008.2
20260506112319 62 277 2.6 6.1 0.00 0.35 0.01 72 1008.2
20260506111816 62 264 3.5 7.8 0.00 0.35 0.01 71 1008.2
20260506111544 62 216 4.3 7.8 0.00 0.35 0.01 71 1008.2
20260506111123 63 195 2.6 7.0 0.00 0.35 0.01 71 1008.2
20260506110311 62 142 2.6 10.4 0.00 0.35 0.01 72 1008.2
20260506105813 62 167 3.5 10.4 0.00 0.35 0.01 73 1008.2
20260506105309 62 144 1.7 7.8 0.00 0.35 0.01 73 1008.2
20260506104809 62 178 3.5 7.8 0.00 0.35 0.01 72 1008.3
20260506104307 61 180 4.3 7.0 0.00 0.35 0.01 72 1008.4
20260506103805 61 142 3.5 7.8 0.00 0.35 0.01 74 1008.4
20260506103304 61 191 2.6 7.8 0.00 0.35 0.01 74 1008.4
20260506102804 61 191 2.6 7.8 0.00 0.35 0.01 74 1008.3
20260506102305 60 203 2.6 7.8 0.00 0.35 0.01 75 1008.4
20260506101801 60 166 4.3 7.8 0.00 0.35 0.01 76 1008.3
20260506101302 60 187 2.6 5.2 0.00 0.35 0.01 77 1008.4